Wind_Speed
51 51 51 51 51 50 51 52 52 52 53 53 53 53 53 53 53 53 52 52 52 51 51 50 49 49 49 49 48 48 47 46 45 44 44 46 47 49 51 54 56 58
50 49 50 50 50 50 50 51 51 51 51 51 51 50 51 51 50 50 50 49 49 48 48 48 48 48 48 47 47 46 45 44 44 43 44 46 48 51 54 56 58 60
48 48 49 49 49 49 49 49 48 48 49 48 47 48 48 48 48 48 47 47 47 46 46 46 46 46 46 46 45 45 44 44 44 44 46 49 51 54 56 58 59 60
46 47 47 47 47 47 46 46 46 46 46 46 45 46 46 46 46 46 45 45 45 44 44 44 44 44 44 44 44 44 44 44 45 47 50 52 54 56 57 58 58 57
45 45 45 45 44 44 44 44 44 45 44 44 44 45 45 44 44 44 43 43 42 42 42 42 42 42 43 43 44 44 45 46 48 49 51 53 54 56 57 56 55 53
42 43 43 42 42 42 42 42 43 43 43 42 43 43 43 42 42 41 41 41 41 41 41 41 41 42 42 43 43 44 45 47 48 49 51 53 54 55 54 53 51 49
40 40 40 40 40 41 41 41 41 42 41 40 41 41 41 41 40 40 40 40 41 41 41 41 41 42 42 43 44 45 45 46 48 49 50 51 51 51 50 49 48 45
38 38 38 39 39 40 40 39 40 41 40 40 40 40 41 40 40 40 40 40 40 41 41 41 42 42 43 43 44 44 45 46 47 47 48 48 48 48 47 47 46 44
36 36 37 38 39 39 39 39 39 40 41 40 40 41 41 41 41 41 40 40 40 41 41 41 42 42 43 43 44 44 44 45 45 45 45 45 45 45 45 45 45 44
36 36 37 38 39 39 40 40 39 40 41 41 41 41 42 41 41 40 40 40 40 41 41 41 41 42 42 43 43 43 43 43 43 42 42 42 43 44 45 46 47 46
37 38 39 40 40 41 41 41 41 42 43 42 42 42 42 41 40 41 40 40 40 40 40 41 41 41 42 41 41 41 41 41 40 40 39 41 43 45 47 48 48 48
38 40 41 41 42 43 43 43 43 43 43 43 43 42 42 41 41 41 41 40 40 41 40 40 40 40 40 39 39 39 39 38 38 38 38 40 43 45 48 50 50 51
41 41 42 43 43 44 45 44 44 44 44 43 43 42 42 41 41 41 41 41 41 41 40 40 40 39 39 38 38 38 37 37 37 37 38 39 40 43 49 51 51 52
42 42 43 44 44 45 45 45 44 44 44 43 43 42 42 42 42 42 41 41 41 40 40 39 39 39 39 38 38 38 37 38 38 39 40 41 42 45 50 53 52 53
41 42 43 44 45 45 46 45 45 44 43 42 42 42 42 42 42 42 41 41 41 40 40 39 39 39 39 38 38 38 38 40 41 43 43 44 45 47 51 54 54 54
43 44 44 45 45 45 46 45 44 43 42 42 42 41 41 42 42 41 41 41 40 40 40 39 39 39 39 38 39 39 40 42 43 44 45 46 48 48 51 54 56 55
42 43 44 44 45 45 45 44 43 43 42 41 42 41 41 41 41 41 40 40 41 40 40 39 39 39 39 40 40 41 42 43 44 44 45 47 48 49 51 55 57 57
41 43 44 44 43 43 43 42 42 42 42 41 41 41 41 40 40 40 40 40 41 41 40 40 39 39 40 41 41 43 43 43 43 44 46 48 49 50 52 55 57 57
42 43 43 42 41 41 41 41 41 42 41 41 41 41 40 40 40 41 40 40 41 41 41 40 39 39 41 41 42 43 43 43 44 46 48 49 50 51 54 56 57 58
43 43 42 41 40 39 39 40 40 41 41 41 41 41 41 41 41 41 41 41 42 42 42 40 40 40 40 41 42 43 44 44 46 48 50 51 51 53 56 58 58 58
44 43 41 40 39 38 38 39 40 41 42 42 42 42 42 42 42 42 42 42 42 42 42 41 40 40 40 41 42 42 43 45 47 49 50 50 52 53 56 59 58 58
45 44 42 40 39 38 39 40 40 41 42 43 43 43 43 43 43 43 43 43 42 42 42 41 41 41 41 41 43 45 46 47 47 48 48 49 51 53 57 59 59 58
46 44 42 40 40 40 40 41 41 42 43 44 43 43 44 44 44 44 43 43 43 43 43 43 43 43 42 43 46 49 50 48 47 47 48 50 52 55 58 61 61 60
46 45 44 43 42 42 42 42 43 44 44 43 43 44 44 45 44 44 43 43 43 44 45 45 45 44 43 44 47 49 49 48 48 48 49 51 53 55 58 60 61 62
46 44 43 43 43 43 43 43 43 43 42 42 43 44 45 45 45 44 44 43 44 45 46 47 47 45 45 46 48 48 48 49 49 49 50 51 52 53 55 56 58 60
47 42 40 41 43 44 44 44 43 43 43 44 45 46 46 46 45 44 44 44 45 46 47 48 49 48 48 48 49 50 50 50 50 50 50 51 52 53 53 53 56 58
Wind_Direction
270 272 273 273 274 275 276 277 278 279 280 280 281 283 283 284 285 286 287 288 289 290 291 292 293 294 294 295 295 294 293 293 294 294 293 292 292 292 295 297 300 302
272 273 274 274 275 275 276 277 278 279 280 281 282 283 284 284 285 286 287 288 290 291 292 293 293 293 294 293 292 292 292 293 293 292 290 290 290 293 296 298 300 302
273 273 273 274 274 275 276 277 278 279 280 281 282 283 284 285 286 287 288 289 291 292 293 293 293 293 293 292 291 291 291 291 291 289 289 290 292 294 296 298 300 302
272 272 272 273 274 275 277 278 279 280 281 282 283 284 284 286 287 288 289 290 291 292 292 293 293 292 292 291 291 291 291 290 289 289 290 292 294 295 296 298 301 302
270 271 272 273 275 276 277 279 280 280 281 283 284 284 285 287 288 289 290 291 292 293 293 293 293 293 293 292 292 292 291 290 289 290 292 294 295 296 298 299 301 302
269 271 272 274 276 277 278 279 280 281 282 284 284 285 286 288 289 290 292 293 293 293 293 294 294 293 293 293 292 292 291 291 292 293 294 295 296 297 299 300 301 303
270 272 274 275 276 277 278 279 281 282 283 285 286 286 287 289 290 292 292 293 294 294 294 294 294 294 293 293 293 293 293 294 295 295 296 296 297 298 299 300 301 303
271 273 274 275 277 278 279 281 282 284 285 285 286 287 288 289 290 291 292 293 293 294 294 294 294 294 294 294 295 295 296 296 296 297 297 297 298 298 299 300 301 304
270 273 274 276 278 279 281 282 283 285 285 286 286 287 288 289 290 291 292 293 293 293 293 293 294 295 295 296 297 297 297 297 297 297 297 297 298 298 299 300 301 304
271 274 275 277 279 280 282 283 284 285 285 286 287 288 289 290 291 292 292 292 293 293 293 294 295 295 296 296 296 296 296 296 296 296 297 298 298 298 299 299 301 306
273 275 277 278 280 281 282 283 284 285 286 287 288 289 290 291 291 291 292 292 292 292 293 294 294 294 295 295 295 296 297 297 296 297 297 298 299 300 300 301 305 310
276 278 279 280 281 282 283 284 285 285 286 288 289 289 290 290 290 290 291 291 291 292 292 293 293 294 294 294 295 297 298 297 297 297 298 299 301 302 302 305 309 312
278 279 280 281 282 282 283 284 284 285 286 288 289 289 289 289 289 290 290 290 291 292 293 293 293 293 293 294 295 296 296 296 296 295 296 298 300 301 302 305 308 308
279 280 281 281 282 282 283 283 284 285 287 288 288 289 289 289 289 289 290 291 292 293 293 293 293 293 292 293 293 294 295 295 294 293 293 295 297 299 300 302 304 306
280 280 280 281 281 282 282 283 285 286 287 288 288 288 288 287 288 289 291 292 293 293 293 293 292 292 292 292 291 291 292 292 292 292 293 294 296 298 299 301 303 306
279 279 280 280 281 282 283 284 286 287 288 287 287 287 287 287 288 290 291 292 292 292 292 292 292 292 291 291 290 289 288 289 290 292 292 293 295 298 299 300 303 307
279 279 280 282 283 283 285 286 287 288 287 287 286 286 286 287 288 289 289 290 290 290 291 291 293 293 292 291 290 288 288 289 290 291 291 292 294 297 298 300 303 306
281 282 283 284 284 286 287 288 288 288 287 286 285 285 286 286 287 287 287 288 288 289 290 292 294 293 291 290 289 288 289 290 290 290 290 291 294 297 298 299 302 304
283 284 285 286 286 288 289 289 288 287 286 286 285 285 285 285 285 285 286 287 287 288 290 293 293 292 291 290 289 290 291 291 290 291 291 293 296 297 298 299 302 304
286 287 287 287 288 289 289 289 288 287 286 285 285 284 284 284 284 284 285 286 287 289 291 293 292 291 291 290 290 291 292 291 291 292 295 298 300 299 299 301 304 306
288 288 288 288 289 289 289 288 288 288 287 285 285 285 284 283 283 284 285 286 288 290 291 291 291 291 290 290 290 289 289 289 291 295 300 303 303 301 301 302 305 308
287 288 288 288 288 288 288 289 289 288 287 286 286 285 284 283 284 284 286 288 289 289 290 290 289 290 290 289 287 286 288 292 295 298 301 302 301 301 300 302 306 309
287 288 288 288 289 288 288 289 289 289 287 287 286 286 284 284 284 285 286 288 288 288 289 288 289 290 289 288 286 288 293 296 297 298 299 299 299 299 298 301 305 307
286 287 288 288 287 288 289 291 290 289 287 287 286 285 284 284 284 285 286 287 287 288 288 289 290 291 289 288 288 291 293 294 295 297 297 297 297 296 296 298 301 302
286 289 290 288 287 289 291 291 290 288 287 288 288 286 285 284 285 285 286 287 287 288 288 289 289 289 288 287 287 288 288 290 293 295 295 295 296 296 296 298 298 298
286 287 284 281 284 289 290 290 289 288 287 288 288 287 285 285 286 287 288 288 288 288 288 288 288 287 286 285 285 285 286 289 290 291 292 293 294 295 296 297 296 296
Height
10728 10729 10729 10729 10729 10729 10728 10727 10727 10726 10725 10724 10724 10723 10722 10720 10719 10718 10717 10716 10715 10713 10712 10710 10708 10706 10704 10702 10700 10698 10696 10695 10694 10692 10691 10689 10687 10686 10684 10681 10679 10675
10724 10724 10724 10723 10723 10723 10722 10722 10721 10721 10720 10719 10719 10718 10716 10715 10714 10713 10712 10711 10710 10708 10706 10704 10702 10700 10698 10696 10695 10693 10692 10690 10689 10688 10686 10685 10683 10681 10679 10676 10673 10670
10719 10718 10718 10718 10718 10717 10717 10717 10716 10715 10714 10714 10714 10713 10711 10710 10709 10708 10707 10706 10704 10702 10700 10698 10697 10695 10693 10691 10690 10688 10687 10686 10684 10683 10681 10680 10678 10676 10673 10671 10668 10665
10714 10713 10713 10712 10712 10713 10712 10712 10711 10710 10709 10709 10709 10707 10706 10705 10704 10703 10702 10700 10699 10697 10695 10693 10692 10690 10688 10687 10685 10684 10683 10681 10680 10678 10677 10675 10673 10671 10668 10665 10662 10659
10708 10708 10708 10707 10708 10708 10707 10707 10706 10705 10705 10705 10704 10702 10701 10701 10699 10698 10697 10695 10694 10692 10690 10688 10687 10685 10684 10682 10681 10679 10678 10676 10675 10674 10672 10670 10668 10665 10662 10660 10657 10654
10704 10703 10703 10703 10703 10703 10702 10702 10701 10700 10700 10701 10699 10698 10696 10695 10694 10693 10692 10690 10688 10687 10685 10683 10682 10681 10679 10678 10676 10675 10673 10671 10670 10669 10667 10665 10662 10659 10657 10654 10652 10649
10700 10699 10699 10698 10698 10698 10697 10697 10696 10695 10696 10696 10695 10693 10691 10690 10689 10688 10687 10685 10683 10682 10680 10679 10677 10676 10675 10673 10671 10670 10668 10666 10665 10664 10661 10659 10656 10654 10651 10649 10646 10644
10695 10695 10694 10693 10693 10692 10692 10693 10692 10690 10690 10691 10690 10688 10687 10686 10685 10684 10682 10681 10679 10677 10676 10674 10673 10672 10670 10668 10667 10665 10663 10662 10660 10658 10656 10653 10651 10648 10645 10643 10641 10639
10691 10690 10689 10688 10688 10687 10687 10688 10688 10686 10685 10686 10685 10684 10683 10682 10681 10679 10678 10677 10675 10673 10672 10670 10669 10668 10666 10664 10662 10660 10658 10657 10655 10653 10650 10648 10645 10642 10640 10637 10635 10634
10686 10685 10684 10683 10683 10683 10683 10683 10684 10682 10680 10680 10680 10679 10678 10678 10676 10675 10674 10672 10671 10669 10668 10667 10665 10663 10661 10659 10657 10656 10654 10652 10650 10648 10645 10643 10640 10637 10634 10632 10630 10628
10681 10680 10679 10679 10678 10678 10678 10678 10679 10678 10676 10676 10675 10674 10674 10673 10671 10670 10669 10668 10666 10665 10664 10662 10660 10658 10656 10655 10653 10651 10649 10647 10645 10642 10640 10637 10634 10631 10628 10626 10624 10622
10676 10675 10675 10674 10673 10673 10673 10673 10674 10673 10672 10671 10671 10669 10669 10668 10666 10665 10664 10663 10662 10660 10659 10657 10656 10654 10652 10650 10648 10646 10644 10642 10640 10637 10635 10632 10629 10626 10623 10620 10618 10616
10671 10670 10670 10669 10668 10668 10668 10668 10668 10667 10667 10667 10666 10664 10664 10662 10661 10660 10659 10658 10657 10656 10654 10653 10651 10649 10647 10646 10644 10641 10639 10637 10635 10632 10630 10627 10624 10621 10617 10615 10613 10611
10666 10665 10664 10664 10663 10663 10662 10662 10663 10663 10662 10662 10660 10659 10658 10657 10656 10655 10654 10653 10652 10651 10649 10648 10646 10644 10642 10641 10639 10636 10634 10632 10630 10627 10625 10622 10619 10616 10612 10610 10608 10606
10661 10660 10659 10659 10658 10657 10657 10657 10658 10658 10658 10657 10655 10654 10653 10651 10650 10650 10649 10648 10646 10646 10645 10643 10642 10640 10638 10636 10634 10632 10630 10627 10625 10622 10620 10618 10615 10612 10608 10604 10603 10601
10655 10655 10654 10654 10653 10653 10652 10652 10653 10652 10652 10651 10649 10649 10648 10646 10646 10645 10645 10643 10641 10641 10640 10639 10637 10635 10633 10632 10630 10627 10625 10622 10620 10618 10616 10613 10610 10607 10603 10599 10597 10595
10650 10650 10649 10649 10649 10648 10648 10648 10648 10647 10646 10645 10644 10643 10643 10642 10641 10641 10640 10638 10637 10635 10635 10634 10633 10631 10629 10627 10625 10622 10620 10618 10615 10613 10610 10607 10604 10602 10598 10594 10592 10590
10646 10645 10645 10645 10645 10644 10643 10643 10642 10641 10640 10639 10638 10638 10638 10637 10636 10636 10635 10634 10632 10630 10630 10630 10629 10627 10624 10622 10619 10617 10615 10613 10611 10608 10605 10602 10600 10597 10593 10589 10587 10585
10641 10641 10641 10641 10640 10639 10639 10638 10636 10635 10634 10634 10633 10633 10633 10633 10631 10631 10630 10629 10627 10625 10625 10626 10625 10623 10619 10617 10614 10612 10610 10608 10605 10602 10599 10597 10595 10592 10588 10584 10582 10580
10637 10636 10636 10636 10636 10635 10634 10632 10631 10629 10629 10628 10628 10628 10628 10628 10627 10626 10625 10624 10623 10621 10621 10621 10620 10617 10615 10612 10609 10607 10604 10602 10600 10597 10594 10592 10590 10587 10583 10579 10577 10576
10632 10631 10631 10631 10630 10630 10628 10627 10626 10625 10624 10623 10623 10623 10623 10622 10622 10621 10620 10620 10619 10617 10616 10615 10613 10612 10610 10607 10604 10601 10599 10597 10595 10592 10590 10588 10585 10582 10578 10574 10572 10571
10627 10626 10626 10626 10625 10625 10624 10622 10621 10620 10618 10618 10618 10618 10617 10617 10616 10615 10615 10615 10614 10612 10610 10609 10608 10606 10605 10602 10598 10595 10593 10592 10591 10588 10586 10584 10581 10578 10574 10570 10567 10566
10622 10621 10621 10621 10620 10619 10619 10618 10617 10615 10614 10613 10612 10612 10612 10611 10611 10610 10610 10610 10609 10606 10604 10603 10602 10602 10601 10597 10592 10589 10587 10587 10586 10584 10582 10579 10576 10573 10569 10566 10563 10560
10617 10616 10616 10616 10615 10614 10614 10613 10612 10610 10609 10608 10607 10607 10606 10606 10605 10605 10605 10605 10603 10600 10598 10597 10596 10596 10595 10592 10588 10585 10583 10581 10580 10579 10577 10574 10572 10569 10565 10562 10559 10555
10613 10613 10612 10610 10609 10609 10609 10608 10607 10606 10604 10603 10602 10601 10600 10600 10600 10600 10600 10599 10598 10595 10593 10591 10590 10590 10589 10587 10584 10581 10579 10577 10576 10574 10572 10569 10567 10564 10562 10559 10555 10551
10610 10611 10610 10606 10604 10604 10604 10603 10602 10601 10600 10599 10597 10596 10594 10594 10595 10595 10595 10594 10592 10590 10588 10585 10584 10583 10583 10581 10579 10576 10574 10573 10572 10569 10567 10564 10562 10559 10557 10555 10551 10546